MSC Regina — 3FGF9 — position and weather

sailwx.info

Track history (hours):
 
Tides and Currents Weather Stations Pressure Air Temp Water Temp Dewpoint Dewpoint Depression Visibility Wind Speed Wind Dir Waves Ship Positions

MSC Regina

Last reported at 2014-Oct-22 11:32 UTC. Time now 2014-Oct-22 12:24 UTC.
Position N 39°26' W 000°20'.

Length 259 m; draft 8.6 m.

Type: Ship (hazmat cat A). MMSI: 357332000.

Date/timePositionNaut miles runAvg speedWind from/ knotsBaromVisibWave heightAir tempDewpointWater temp
2014-Oct-22 11:32N 39°26' W 000°20'0 0.0
2014-Oct-22 10:33N 39°26' W 000°20'1 0.5
2014-Oct-22 09:30N 39°26' W 000°19'0 0.0
2014-Oct-22 08:30N 39°26' W 000°19'0 0.0
2014-Oct-22 07:33N 39°26' W 000°19'0 0.0
2014-Oct-22 06:33N 39°26' W 000°19'0 0.0
2014-Oct-22 05:30N 39°26' W 000°19'0 0.0
2014-Oct-22 04:24N 39°26' W 000°19'0 0.0
2014-Oct-22 03:30N 39°26' W 000°19'0 0.0
2014-Oct-22 02:30N 39°26' W 000°19'0 0.0
2014-Oct-22 01:30N 39°26' W 000°19'0 0.0
2014-Oct-22 00:30N 39°26' W 000°19'0 0.0
2014-Oct-21 23:30N 39°26' W 000°19'0 0.0
2014-Oct-21 22:30N 39°26' W 000°19'0 0.0
2014-Oct-21 21:33N 39°26' W 000°19'0 0.0
2014-Oct-21 20:30N 39°26' W 000°19'0 0.0
2014-Oct-21 19:24N 39°26' W 000°19'0 0.0
2014-Oct-21 18:33N 39°26' W 000°19'0 0.0
2014-Oct-21 17:30N 39°26' W 000°19'0 0.0
2014-Oct-21 16:30N 39°26' W 000°19'0 0.0
2014-Oct-21 15:33N 39°26' W 000°19'0 0.0
2014-Oct-21 14:33N 39°26' W 000°19'0 0.0
2014-Oct-21 13:33N 39°26' W 000°19'0 0.0
2014-Oct-21 12:33N 39°26' W 000°19'0 0.0
2014-Oct-21 11:30N 39°26' W 000°19'0 0.0
2014-Oct-21 10:30N 39°26' W 000°19'0 0.0
2014-Oct-21 09:33N 39°26' W 000°19'0 0.0
2014-Oct-21 08:33N 39°26' W 000°19'0 0.0
2014-Oct-21 07:30N 39°26' W 000°19'0 0.0
2014-Oct-21 06:33N 39°26' W 000°19'3 3.4
2014-Oct-21 05:33N 39°25' W 000°15'2 1.6
2014-Oct-21 04:34N 39°24' W 000°13'1514.5
2014-Oct-21 03:33N 39°13' W 000°01'2720.3
2014-Oct-21 02:15N 38°53' E 000°21'1319.0
2014-Oct-21 01:33N 38°41' E 000°27'2220.1
2014-Oct-21 00:28N 38°22' E 000°12'1819.7
2014-Oct-20 23:33N 38°07' W 000°00'2019.9
2014-Oct-20 22:33N 37°51' W 000°14'2019.6
2014-Oct-20 21:33N 37°35' W 000°29'3919.6
2014-Oct-20 19:34N 37°09' W 001°06'2020.0
2014-Oct-20 18:33N 36°56' W 001°25'2020.0
2014-Oct-20 17:34N 36°42' W 001°43'17919.9
2014-Oct-20 08:34N 35°59' W 005°19'14818.6
2014-Oct-20 00:33N 36°21' W 008°21'1919.5
2014-Oct-19 23:34N 36°27' W 008°44'2019.9
2014-Oct-19 22:34N 36°33' W 009°08'1919.2
2014-Oct-19 21:34N 36°44' W 009°27'2219.3
2014-Oct-19 20:26N 37°05' W 009°34'2520.7
2014-Oct-19 19:13N 37°27' W 009°19'1420.3
2014-Oct-19 18:33N 37°38' W 009°09'2020.0
2014-Oct-19 17:33N 37°52' W 008°51'4 3.8
2014-Oct-19 16:33N 37°56' W 008°51'0 0.0
2014-Oct-19 15:33N 37°56' W 008°51'0 0.0
2014-Oct-19 14:15N 37°56' W 008°51'0 0.0
2014-Oct-19 13:33N 37°56' W 008°51'0 0.0
2014-Oct-19 12:33N 37°56' W 008°51'0 0.0
2014-Oct-19 11:33N 37°56' W 008°51'0 0.0
2014-Oct-19 10:33N 37°56' W 008°51'0 0.0
2014-Oct-19 09:33N 37°56' W 008°51'0 0.0
2014-Oct-19 08:33N 37°56' W 008°51'0 0.0
2014-Oct-19 07:33N 37°56' W 008°51'0 0.0
2014-Oct-19 06:33N 37°56' W 008°51'0 0.0
2014-Oct-19 05:33N 37°56' W 008°51'0 0.0
2014-Oct-19 04:32N 37°56' W 008°51'3 3.0
2014-Oct-19 03:33N 37°53' W 008°52'0 0.4
2014-Oct-19 02:32N 37°53' W 008°52'0 0.1
2014-Oct-19 01:32N 37°53' W 008°52'0 0.0
2014-Oct-19 00:32N 37°53' W 008°52'0 0.0
2014-Oct-18 23:32N 37°53' W 008°52'0 0.0
2014-Oct-18 22:29N 37°53' W 008°52'0 0.0
2014-Oct-18 21:32N 37°53' W 008°52'0 0.1
2014-Oct-18 20:32N 37°53' W 008°52'0 0.0
2014-Oct-18 19:32N 37°53' W 008°52'0 0.0
2014-Oct-18 18:32N 37°53' W 008°52'0 0.0
2014-Oct-18 17:32N 37°53' W 008°52'0 0.0
2014-Oct-18 16:32N 37°53' W 008°52'0 0.0
2014-Oct-18 15:32N 37°53' W 008°52'0 0.0
2014-Oct-18 14:32N 37°53' W 008°52'0 0.0
2014-Oct-18 13:32N 37°53' W 008°52'0 0.3
2014-Oct-18 12:33N 37°53' W 008°52'10 9.6
2014-Oct-18 11:33N 37°52' W 009°04'1312.7
2014-Oct-18 10:33N 37°53' W 009°20'1312.6
2014-Oct-18 09:33N 37°54' W 009°36'1313.0
2014-Oct-18 08:33N 37°54' W 009°52'5712.9
2014-Oct-18 04:07N 37°53' W 011°05'913.0
2014-Oct-18 03:27N 37°53' W 011°16'59213.1
2014-Oct-16 06:06N 37°37' W 023°45'815.4
2014-Oct-16 05:33N 37°38' W 023°55'1615.8
2014-Oct-16 04:34N 37°38' W 024°15'1615.7
2014-Oct-16 03:33N 37°39' W 024°35'1616.0
2014-Oct-16 02:34N 37°39' W 024°55'1716.5
2014-Oct-16 01:33N 37°39' W 025°16'10 9.6
2014-Oct-16 00:33N 37°40' W 025°28'1 1.2
2014-Oct-15 23:33N 37°39' W 025°30'1 1.1
2014-Oct-15 22:33N 37°39' W 025°31'3 2.7
2014-Oct-15 21:33N 37°40' W 025°34'1110.9
2014-Oct-15 20:33N 37°35' W 025°46'1111.1
2014-Oct-15 19:33N 37°31' W 025°60'1211.7
2014-Oct-15 18:33N 37°31' W 026°14'1211.8
2014-Oct-15 17:33N 37°31' W 026°29'8 8.2
2014-Oct-15 16:33N 37°30' W 026°39'9 9.5
2014-Oct-15 15:33N 37°29' W 026°51'9 8.6
2014-Oct-15 14:33N 37°28' W 027°02'11 8.4
2014-Oct-15 13:14N 37°27' W 027°16'16 9.1
2014-Oct-15 11:29N 37°26' W 027°36'1718.7
2014-Oct-15 10:33N 37°25' W 027°58'1918.8
2014-Oct-15 09:33N 37°24' W 028°22'1918.7
2014-Oct-15 08:33N 37°22' W 028°45'1919.0
2014-Oct-15 07:33N 37°23' W 029°09'1919.1
2014-Oct-15 06:33N 37°25' W 029°33'7719.1
2014-Oct-15 02:30N 37°36' W 031°09'  
Track history (hours):
 
Tides and Currents Weather Stations Pressure Air Temp Water Temp Dewpoint Dewpoint Depression Visibility Wind Speed Wind Dir Waves Ship Positions

MSC Regina

Last reported at 2014-Oct-22 11:32 UTC. Time now 2014-Oct-22 12:24 UTC.
Position N 39°26' W 000°20'.

Length 259 m; draft 8.6 m.

Type: Ship (hazmat cat A). MMSI: 357332000.

Date/timePositionNaut miles runAvg speedWind from/ knotsBaromVisibWave heightAir tempDewpointWater temp
2014-Oct-22 11:32N 39°26' W 000°20'0 0.0
2014-Oct-22 10:33N 39°26' W 000°20'1 0.5
2014-Oct-22 09:30N 39°26' W 000°19'0 0.0
2014-Oct-22 08:30N 39°26' W 000°19'0 0.0
2014-Oct-22 07:33N 39°26' W 000°19'0 0.0
2014-Oct-22 06:33N 39°26' W 000°19'0 0.0
2014-Oct-22 05:30N 39°26' W 000°19'0 0.0
2014-Oct-22 04:24N 39°26' W 000°19'0 0.0
2014-Oct-22 03:30N 39°26' W 000°19'0 0.0
2014-Oct-22 02:30N 39°26' W 000°19'0 0.0
2014-Oct-22 01:30N 39°26' W 000°19'0 0.0
2014-Oct-22 00:30N 39°26' W 000°19'0 0.0
2014-Oct-21 23:30N 39°26' W 000°19'0 0.0
2014-Oct-21 22:30N 39°26' W 000°19'0 0.0
2014-Oct-21 21:33N 39°26' W 000°19'0 0.0
2014-Oct-21 20:30N 39°26' W 000°19'0 0.0
2014-Oct-21 19:24N 39°26' W 000°19'0 0.0
2014-Oct-21 18:33N 39°26' W 000°19'0 0.0
2014-Oct-21 17:30N 39°26' W 000°19'0 0.0
2014-Oct-21 16:30N 39°26' W 000°19'0 0.0
2014-Oct-21 15:33N 39°26' W 000°19'0 0.0
2014-Oct-21 14:33N 39°26' W 000°19'0 0.0
2014-Oct-21 13:33N 39°26' W 000°19'0 0.0
2014-Oct-21 12:33N 39°26' W 000°19'0 0.0
2014-Oct-21 11:30N 39°26' W 000°19'0 0.0
2014-Oct-21 10:30N 39°26' W 000°19'0 0.0
2014-Oct-21 09:33N 39°26' W 000°19'0 0.0
2014-Oct-21 08:33N 39°26' W 000°19'0 0.0
2014-Oct-21 07:30N 39°26' W 000°19'0 0.0
2014-Oct-21 06:33N 39°26' W 000°19'3 3.4
2014-Oct-21 05:33N 39°25' W 000°15'2 1.6
2014-Oct-21 04:34N 39°24' W 000°13'1514.5
2014-Oct-21 03:33N 39°13' W 000°01'2720.3
2014-Oct-21 02:15N 38°53' E 000°21'1319.0
2014-Oct-21 01:33N 38°41' E 000°27'2220.1
2014-Oct-21 00:28N 38°22' E 000°12'1819.7
2014-Oct-20 23:33N 38°07' W 000°00'2019.9
2014-Oct-20 22:33N 37°51' W 000°14'2019.6
2014-Oct-20 21:33N 37°35' W 000°29'3919.6
2014-Oct-20 19:34N 37°09' W 001°06'2020.0
2014-Oct-20 18:33N 36°56' W 001°25'2020.0
2014-Oct-20 17:34N 36°42' W 001°43'17919.9
2014-Oct-20 08:34N 35°59' W 005°19'14818.6
2014-Oct-20 00:33N 36°21' W 008°21'1919.5
2014-Oct-19 23:34N 36°27' W 008°44'2019.9
2014-Oct-19 22:34N 36°33' W 009°08'1919.2
2014-Oct-19 21:34N 36°44' W 009°27'2219.3
2014-Oct-19 20:26N 37°05' W 009°34'2520.7
2014-Oct-19 19:13N 37°27' W 009°19'1420.3
2014-Oct-19 18:33N 37°38' W 009°09'2020.0
2014-Oct-19 17:33N 37°52' W 008°51'4 3.8
2014-Oct-19 16:33N 37°56' W 008°51'0 0.0
2014-Oct-19 15:33N 37°56' W 008°51'0 0.0
2014-Oct-19 14:15N 37°56' W 008°51'0 0.0
2014-Oct-19 13:33N 37°56' W 008°51'0 0.0
2014-Oct-19 12:33N 37°56' W 008°51'0 0.0
2014-Oct-19 11:33N 37°56' W 008°51'0 0.0
2014-Oct-19 10:33N 37°56' W 008°51'0 0.0
2014-Oct-19 09:33N 37°56' W 008°51'0 0.0
2014-Oct-19 08:33N 37°56' W 008°51'0 0.0
2014-Oct-19 07:33N 37°56' W 008°51'0 0.0
2014-Oct-19 06:33N 37°56' W 008°51'0 0.0
2014-Oct-19 05:33N 37°56' W 008°51'0 0.0
2014-Oct-19 04:32N 37°56' W 008°51'3 3.0
2014-Oct-19 03:33N 37°53' W 008°52'0 0.4
2014-Oct-19 02:32N 37°53' W 008°52'0 0.1
2014-Oct-19 01:32N 37°53' W 008°52'0 0.0
2014-Oct-19 00:32N 37°53' W 008°52'0 0.0
2014-Oct-18 23:32N 37°53' W 008°52'0 0.0
2014-Oct-18 22:29N 37°53' W 008°52'0 0.0
2014-Oct-18 21:32N 37°53' W 008°52'0 0.1
2014-Oct-18 20:32N 37°53' W 008°52'0 0.0
2014-Oct-18 19:32N 37°53' W 008°52'0 0.0
2014-Oct-18 18:32N 37°53' W 008°52'0 0.0
2014-Oct-18 17:32N 37°53' W 008°52'0 0.0
2014-Oct-18 16:32N 37°53' W 008°52'0 0.0
2014-Oct-18 15:32N 37°53' W 008°52'0 0.0
2014-Oct-18 14:32N 37°53' W 008°52'0 0.0
2014-Oct-18 13:32N 37°53' W 008°52'0 0.3
2014-Oct-18 12:33N 37°53' W 008°52'10 9.6
2014-Oct-18 11:33N 37°52' W 009°04'1312.7
2014-Oct-18 10:33N 37°53' W 009°20'1312.6
2014-Oct-18 09:33N 37°54' W 009°36'1313.0
2014-Oct-18 08:33N 37°54' W 009°52'5712.9
2014-Oct-18 04:07N 37°53' W 011°05'913.0
2014-Oct-18 03:27N 37°53' W 011°16'59213.1
2014-Oct-16 06:06N 37°37' W 023°45'815.4
2014-Oct-16 05:33N 37°38' W 023°55'1615.8
2014-Oct-16 04:34N 37°38' W 024°15'1615.7
2014-Oct-16 03:33N 37°39' W 024°35'1616.0
2014-Oct-16 02:34N 37°39' W 024°55'1716.5
2014-Oct-16 01:33N 37°39' W 025°16'10 9.6
2014-Oct-16 00:33N 37°40' W 025°28'1 1.2
2014-Oct-15 23:33N 37°39' W 025°30'1 1.1
2014-Oct-15 22:33N 37°39' W 025°31'3 2.7
2014-Oct-15 21:33N 37°40' W 025°34'1110.9
2014-Oct-15 20:33N 37°35' W 025°46'1111.1
2014-Oct-15 19:33N 37°31' W 025°60'1211.7
2014-Oct-15 18:33N 37°31' W 026°14'1211.8
2014-Oct-15 17:33N 37°31' W 026°29'8 8.2
2014-Oct-15 16:33N 37°30' W 026°39'9 9.5
2014-Oct-15 15:33N 37°29' W 026°51'9 8.6
2014-Oct-15 14:33N 37°28' W 027°02'11 8.4
2014-Oct-15 13:14N 37°27' W 027°16'16 9.1
2014-Oct-15 11:29N 37°26' W 027°36'1718.7
2014-Oct-15 10:33N 37°25' W 027°58'1918.8
2014-Oct-15 09:33N 37°24' W 028°22'1918.7
2014-Oct-15 08:33N 37°22' W 028°45'1919.0
2014-Oct-15 07:33N 37°23' W 029°09'1919.1
2014-Oct-15 06:33N 37°25' W 029°33'7719.1
2014-Oct-15 02:30N 37°36' W 031°09'  

Dump ship's entire track history